When you browse on this site, cookies collect data to enhance your experience and personalize the content and advertising you see.
Visit our Privacy Policy to learn more. By continuing to use the site, you agree to this use of cookies and data.
  • In France
  • List of Countries
  • For 7 days
  • Water Temperature
  • Weather Map
  • Weather Widgets
  • user-avatar
    Login

    Hourly Weather Oruro

    Today, 16 September, Monday

    Time Temperature Precipitation Wind Pressure Humidity
    00:00 +11°C° 0 mm 1 mps 478 mmHg 60%
    01:00 +9°C° 0 mm 2 mps 477 mmHg 64%
    02:00 +10°C° 0 mm 1 mps 477 mmHg 67%
    03:00 +9°C° 0 mm 1 mps 476 mmHg 68%
    04:00 +9°C° 0 mm 1 mps 476 mmHg 69%
    05:00 +8°C° 0 mm 1 mps 475 mmHg 70%
    06:00 +8°C° 0 mm 2 mps 476 mmHg 63%
    07:00 +8°C° 0 mm 2 mps 477 mmHg 56%
    08:00 +9°C° 0 mm 2 mps 478 mmHg 49%
    09:00 +10°C° 0 mm 2 mps 479 mmHg 43%
    10:00 +13°C° 0 mm 2 mps 480 mmHg 37%
    11:00 +15°C° 0 mm 2 mps 481 mmHg 31%
    12:00 +16°C° 0 mm 2 mps 481 mmHg 28%
    13:00 +18°C° 0 mm 1 mps 481 mmHg 26%
    14:00 +19°C° 0 mm 1 mps 481 mmHg 23%
    15:00 +17°C° 0 mm 2 mps 481 mmHg 26%
    16:00 +17°C° 0 mm 3 mps 480 mmHg 29%
    17:00 +15°C° 0 mm 4 mps 480 mmHg 31%
    18:00 +15°C° 0 mm 4 mps 480 mmHg 36%
    19:00 +14°C° 0 mm 4 mps 480 mmHg 42%
    20:00 +13°C° 0 mm 4 mps 480 mmHg 47%
    21:00 +12°C° 0.1 mm 4 mps 480 mmHg 52%
    22:00 +10°C° 0.1 mm 5 mps 479 mmHg 57%
    23:00 +10°C° 0.1 mm 6 mps 479 mmHg 62%

    Tomorrow, 17 September, Tuesday

    Time Temperature Precipitation Wind Pressure Humidity
    00:00 +9°C° 0 mm 5 mps 478 mmHg 65%
    01:00 +8°C° 0 mm 4 mps 478 mmHg 69%
    02:00 +8°C° 0 mm 3 mps 477 mmHg 72%
    03:00 +8°C° 0 mm 2 mps 477 mmHg 74%
    04:00 +7°C° 0 mm 2 mps 476 mmHg 77%
    05:00 +7°C° 0 mm 2 mps 476 mmHg 79%
    06:00 +7°C° 0 mm 2 mps 477 mmHg 75%
    07:00 +8°C° 0 mm 2 mps 477 mmHg 70%
    08:00 +8°C° 0 mm 2 mps 478 mmHg 66%
    09:00 +10°C° 0 mm 2 mps 479 mmHg 57%
    10:00 +12°C° 0 mm 3 mps 480 mmHg 48%
    11:00 +13°C° 0 mm 3 mps 480 mmHg 39%
    12:00 +14°C° 0 mm 3 mps 481 mmHg 33%
    13:00 +17°C° 0 mm 3 mps 481 mmHg 27%
    14:00 +18°C° 0 mm 4 mps 481 mmHg 21%
    15:00 +18°C° 0 mm 4 mps 481 mmHg 21%
    16:00 +18°C° 0 mm 4 mps 480 mmHg 22%
    17:00 +17°C° 0 mm 4 mps 480 mmHg 23%
    18:00 +15°C° 0 mm 4 mps 480 mmHg 29%
    19:00 +14°C° 0 mm 3 mps 479 mmHg 36%
    20:00 +13°C° 0 mm 3 mps 479 mmHg 42%
    21:00 +13°C° 0 mm 3 mps 479 mmHg 45%
    22:00 +12°C° 0 mm 3 mps 479 mmHg 48%
    23:00 +13°C° 0 mm 2 mps 479 mmHg 51%

    Day after tomorrow, 18 September, Wednesday

    Time Temperature Precipitation Wind Pressure Humidity
    00:00 +12°C° 0 mm 2 mps 478 mmHg 51%
    01:00 +10°C° 0 mm 2 mps 477 mmHg 52%
    02:00 +9°C° 0 mm 2 mps 476 mmHg 53%
    03:00 +8°C° 0 mm 2 mps 476 mmHg 50%
    04:00 +8°C° 0 mm 2 mps 475 mmHg 47%
    05:00 +8°C° 0 mm 1 mps 475 mmHg 44%
    06:00 +9°C° 0 mm 1 mps 475 mmHg 40%
    07:00 +9°C° 0 mm 1 mps 476 mmHg 36%
    08:00 +10°C° 0 mm 1 mps 477 mmHg 33%
    09:00 +12°C° 0 mm 1 mps 478 mmHg 29%
    10:00 +13°C° 0 mm 1 mps 478 mmHg 24%
    11:00 +15°C° 0 mm 2 mps 479 mmHg 20%
    12:00 +16°C° 0 mm 2 mps 479 mmHg 18%
    13:00 +17°C° 0 mm 2 mps 479 mmHg 16%
    14:00 +18°C° 0 mm 3 mps 480 mmHg 15%
    15:00 +18°C° 0 mm 3 mps 479 mmHg 15%
    16:00 +18°C° 0 mm 3 mps 479 mmHg 15%
    17:00 +19°C° 0 mm 3 mps 479 mmHg 15%
    18:00 +17°C° 0 mm 3 mps 479 mmHg 20%
    19:00 +16°C° 0 mm 3 mps 478 mmHg 24%
    20:00 +14°C° 0 mm 3 mps 478 mmHg 28%
    21:00 +13°C° 0 mm 3 mps 478 mmHg 27%
    22:00 +11°C° 0 mm 3 mps 477 mmHg 26%
    23:00 +10°C° 0 mm 3 mps 477 mmHg 25%

    19 September, Thursday

    Time Temperature Precipitation Wind Pressure Humidity
    00:00 +9°C° 0 mm 2 mps 476 mmHg 26%
    01:00 +9°C° 0 mm 2 mps 475 mmHg 28%
    02:00 +9°C° 0 mm 1 mps 475 mmHg 29%
    03:00 +8°C° 0 mm 1 mps 474 mmHg 30%
    04:00 +7°C° 0 mm 1 mps 474 mmHg 31%
    05:00 +7°C° 0 mm 1 mps 474 mmHg 32%
    06:00 +8°C° 0 mm 1 mps 475 mmHg 32%
    07:00 +9°C° 0 mm 1 mps 476 mmHg 32%
    08:00 +9°C° 0 mm 1 mps 477 mmHg 31%
    09:00 +10°C° 0 mm 2 mps 477 mmHg 29%
    10:00 +11°C° 0 mm 3 mps 478 mmHg 27%
    11:00 +13°C° 0 mm 3 mps 479 mmHg 25%
    12:00 +14°C° 0 mm 4 mps 479 mmHg 22%
    13:00 +15°C° 0 mm 4 mps 479 mmHg 18%
    14:00 +17°C° 0 mm 4 mps 480 mmHg 14%
    15:00 +17°C° 0 mm 4 mps 480 mmHg 13%
    16:00 +17°C° 0 mm 4 mps 479 mmHg 13%
    17:00 +17°C° 0 mm 4 mps 479 mmHg 12%
    18:00 +15°C° 0 mm 4 mps 479 mmHg 14%
    19:00 +14°C° 0 mm 5 mps 478 mmHg 15%
    20:00 +12°C° 0 mm 5 mps 478 mmHg 17%
    21:00 +10°C° 0 mm 5 mps 478 mmHg 18%
    22:00 +9°C° 0 mm 5 mps 477 mmHg 20%
    23:00 +8°C° 0 mm 5 mps 477 mmHg 21%

    20 September, Friday

    Time Temperature Precipitation Wind Pressure Humidity
    00:00 +7°C° 0 mm 4 mps 476 mmHg 23%
    01:00 +7°C° 0 mm 3 mps 475 mmHg 24%
    02:00 +6°C° 0 mm 2 mps 475 mmHg 26%
    03:00 +6°C° 0 mm 1 mps 474 mmHg 28%
    04:00 +6°C° 0 mm 1 mps 474 mmHg 29%
    05:00 +5°C° 0 mm 1 mps 473 mmHg 31%
    06:00 +6°C° 0 mm 1 mps 474 mmHg 28%
    07:00 +7°C° 0 mm 1 mps 476 mmHg 24%
    08:00 +8°C° 0 mm 1 mps 477 mmHg 21%
    09:00 +10°C° 0 mm 1 mps 478 mmHg 18%
    10:00 +11°C° 0 mm 1 mps 479 mmHg 15%
    11:00 +13°C° 0 mm 1 mps 480 mmHg 12%
    12:00 +14°C° 0 mm 1 mps 480 mmHg 12%
    13:00 +15°C° 0 mm 2 mps 480 mmHg 13%
    14:00 +16°C° 0 mm 2 mps 480 mmHg 13%
    15:00 +17°C° 0 mm 2 mps 480 mmHg 15%
    16:00 +17°C° 0 mm 2 mps 480 mmHg 17%
    17:00 +17°C° 0 mm 2 mps 479 mmHg 18%
    18:00 +16°C° 0 mm 3 mps 479 mmHg 27%
    19:00 +13°C° 0 mm 3 mps 479 mmHg 35%
    20:00 +12°C° 0 mm 3 mps 478 mmHg 44%
    21:00 +11°C° 0 mm 3 mps 478 mmHg 50%
    22:00 +11°C° 0 mm 4 mps 478 mmHg 57%
    23:00 +10°C° 0 mm 4 mps 478 mmHg 63%

    21 September, Saturday

    Time Temperature Precipitation Wind Pressure Humidity
    00:00 +8°C° 0 mm 4 mps 477 mmHg 65%
    01:00 +9°C° 0 mm 3 mps 477 mmHg 68%
    02:00 +8°C° 0 mm 3 mps 476 mmHg 70%
    03:00 +8°C° 0 mm 3 mps 476 mmHg 72%
    04:00 +7°C° 0 mm 2 mps 476 mmHg 74%
    05:00 +7°C° 0 mm 2 mps 475 mmHg 76%
    06:00 +7°C° 0 mm 2 mps 476 mmHg 73%
    07:00 +8°C° 0 mm 3 mps 477 mmHg 69%
    08:00 +8°C° 0 mm 3 mps 477 mmHg 66%
    09:00 +10°C° 0 mm 3 mps 478 mmHg 58%
    10:00 +12°C° 0 mm 3 mps 479 mmHg 50%
    11:00 +13°C° 0 mm 3 mps 480 mmHg 42%
    12:00 +14°C° 0 mm 4 mps 480 mmHg 39%
    13:00 +15°C° 0 mm 4 mps 480 mmHg 36%
    14:00 +17°C° 0 mm 4 mps 480 mmHg 33%
    15:00 +17°C° 0 mm 4 mps 480 mmHg 32%
    16:00 +17°C° 0 mm 4 mps 479 mmHg 31%
    17:00 +17°C° 0 mm 4 mps 479 mmHg 30%
    18:00 +15°C° 0 mm 4 mps 479 mmHg 35%
    19:00 +14°C° 0 mm 3 mps 479 mmHg 40%
    20:00 +13°C° 0 mm 3 mps 478 mmHg 44%
    21:00 +13°C° 0 mm 2 mps 478 mmHg 48%
    22:00 +12°C° 0 mm 2 mps 478 mmHg 53%
    23:00 +10°C° 0 mm 2 mps 478 mmHg 57%
    Show more